{"data":{"norad_id":50473,"epoch":"2026-09-19T23:25:55.327584Z","epoch_age_seconds":71127,"freshness":"FRESH","line1":"1 50473U 21132E   26262.97633481  .00000016  00000+0  88030-5 0  9997","line2":"2 50473  87.9198 347.0411 0001973 104.5731 255.5619 13.17647431230593","mean_motion":13.17647431,"eccentricity":0.0001973,"inclination_deg":87.9198,"raan_deg":347.0411,"arg_perigee_deg":104.5731,"mean_anomaly_deg":255.5619,"bstar":8.803e-6,"rev_number":23059,"period_min":109.28568341739,"perigee_km":1192.2253434508,"apogee_km":1195.2131979352,"semimajor_km":7571.856270693,"source":"CELESTRAK","updated_at":"2026-09-20T09:00:44.677460Z"}}